Regional Weather Roundup
Issued by NWS

Home | Current Version | Previous Version | Text Only | Print | Product List | Glossary On
Versions: 1 2 3 4 5 6 7 8 9 10 11 12 13 14 15 16 17 18 19 20 21 22 23 24 25 26 27 28 29 30 31 32 33 34 35 36 37 38 39 40 41 42 43 44 45 46 47 48 49 50
000
ASHW40 PHFO 231243
RWRHI

WEATHER ROUNDUP FOR HAWAII
NATIONAL WEATHER SERVICE HONOLULU HI
200 AM HST SAT JUL 23 2016

THIS IS AN AUTOMATED REPORT THAT HAS NOT BEEN QUALITY CONTROLLED.

NOTE..."FAIR" INDICATES FEW OR NO CLOUDS BELOW 12,000 FEET WITH NO
SIGNIFICANT WEATHER AND/OR OBSTRUCTIONS TO VISIBILITY.

* - THESE SITES REPORT LIMITED FIELDS

HIZ001>004-231300-
KAUAI-NIIHAU-

CITY           SKY/WX    TMP DP  RH WIND       PRES   REMARKS
LIHUE APT      CLOUDY    73  69  87 N9        29.99F
PORT ALLEN*      N/A     75 N/A N/A E10         N/A
POIPU*         NOT AVBL
PRINCEVILLE*     N/A     73 N/A N/A SE2         N/A
KOKOLE POINT*  NOT AVBL
MOLOAA DAIRY*    N/A     73  70  88 E8G14       N/A
WAIMEA HTS*      N/A     72  61  68 NW6         N/A
PUU OPAE*        N/A     64  59  82 CALM        N/A
PUU LUA*       NOT AVBL
MAKAHA RIDGE*    N/A     66  59  77 E2G8        N/A
$$

HIZ005>011-231300-
OAHU-

CITY           SKY/WX    TMP DP  RH WIND       PRES   REMARKS
HONOLULU       MOCLDY    78  65  63 NE6       29.93F
KALAELOA       MOCLDY    76  64  66 NE6       29.95F
KANEOHE MCB    CLOUDY    78  68  71 NE14G22   29.92F
WHEELER FIELD  FAIR      73  66  78 NW7       29.96F
BELLOWS*         N/A    N/A N/A N/A NE20G25     N/A
KAHUKU*          N/A    N/A N/A N/A VRB8G15     N/A
WHEELER*         N/A    N/A N/A N/A N6          N/A
WAIANAE HARBOR   N/A    N/A N/A N/A NW1         N/A
DILLINGHAM*      N/A     73  64  73 MISG        N/A
KAHUKU TRN*      N/A     84  77  79 W10G22      N/A  HX  94
KAWAILOA*        N/A     72  64  78 E6G17       N/A
KII*             N/A     77  68  73 NE17        N/A
MAKUA RANGE*     N/A     86  75  70 NW8G15      N/A  HX  95
OAHU FOREST NW   N/A     70  64  83 E16G26      N/A
SCHOFIELD BRK*   N/A     79  72  78 MISG        N/A
SCHOFIELD S*   NOT AVBL
WAIANAE VLY*     N/A     73  63  68 N8          N/A
KUAOKALA*        N/A     72  66  83 NE18G26     N/A
HONOULIUULI*   NOT AVBL
MOKUOLOE IS*   NOT AVBL
PALEHUA*         N/A     66  63  88 NE12G24     N/A
WAIAWA PHB*    NOT AVBL
$$

HIZ012>013-231300-
MOLOKAI-

CITY           SKY/WX    TMP DP  RH WIND       PRES   REMARKS
MOLOKAI AIRPT  CLOUDY    77  69  76 NE12G24   29.94F
KALAUPAPA      NOT AVBL
MAKAPULAPAI*     N/A    N/A N/A N/A MISG        N/A
MOLOKAI 1*     NOT AVBL
PUU ALII*        N/A     61  61 100 N3G17       N/A
$$

HIZ016-231300-
KAHOOLAWE-

CITY           SKY/WX    TMP DP  RH WIND       PRES   REMARKS
KAHOOLAWE*       N/A     70 N/A N/A NE1         N/A
HAKIOAWA*        N/A     73  69  88 MISG      30.31F
HONOKANAIA*      N/A     76  69  78 N16G36    29.85S
KANELOA*         N/A    N/A N/A N/A MISG        N/A
KEALIALALO*    NOT AVBL
LUA MAKIKA*    NOT AVBL
$$

HIZ014>015-231300-
LANAI-

CITY           SKY/WX    TMP DP  RH WIND       PRES   REMARKS
LANAI CITY     FAIR      71  66  84 NE24G33   29.95F
LANAI 1*       NOT AVBL
$$

HIZ017>028-231300-
MAUI-

CITY           SKY/WX    TMP DP  RH WIND       PRES   REMARKS
KAHULUI        CLOUDY    77  70  79 NE20G28   29.92F
KAPALUA-W MAUI NOT AVBL
HANA AIRPORT   LGT RAIN  75  72  88 CALM      29.96S
HANA*            N/A     77 N/A N/A N6G12       N/A
HALEAKALA SUMM   N/A     46  45  93 NE17        N/A
MAALAEA BAY*     N/A     77 N/A N/A N18G29      N/A
HALEAKALA*     NOT AVBL
KAUPO GAP*       N/A     75  64  69 N12G18      N/A
KULA 1*          N/A     56  36  47 E3          N/A
$$

HIZ023>026-231300-
BIG ISLAND OF HAWAII COAST AND LOWER SLOPES-

CITY           SKY/WX    TMP DP  RH WIND       PRES   REMARKS
KAILUA KONA    FAIR      80  69  69 NE8       29.84F
HILO           HVY RAIN  75  75 100 NW17      29.85F FOG
HONOKAA*         N/A     70 N/A N/A VRB1        N/A
KAWAIHAE MWT*    N/A     82 N/A N/A N3G10       N/A
KAWAIHAE*        N/A     82 N/A N/A SE2       29.83F
SOUTH POINT*     N/A     73 N/A N/A SW8G14      N/A
UPOLU AIRPORT*   N/A    N/A N/A N/A NE25G35     N/A
KAMUELA*       CLOUDY    68  66  94 NE17      29.96F
HAKALAU*         N/A     57  56  97 N5G12       N/A
KALOKO-HONOKO*   N/A     75  66  73 NE3       29.82
PALI 2*          N/A     68  59  73 S12G35      N/A
KEALAKOMO*       N/A     79  68  69 N35G51      N/A
KAUPULEHU*       N/A     75  64  69 NE3G16      N/A
KAPAPALA*        N/A     68  66  94 SW3         N/A
LOWER KAHUKU*    N/A     61  59  94 N2          N/A
PUHE CS*         N/A     81  66  61 SW2G8       N/A
PUHO CS*       NOT AVBL
PTA KEAMUKU*     N/A     66  61  82 CALM        N/A
WAIKOLOA*        N/A     75  66  73 E16G29      N/A
$$

HIZ027>028-231300-
BIG ISLAND OF HAWAII INTERIOR AND SUMMMITS-

CITY           SKY/WX    TMP DP  RH WIND       PRES   REMARKS
BRADSHAW FIELD FAIR      54  46  74 SE3       30.22F
MK VISITOR CEN   N/A     54  48  82 E3          N/A
MAUNA KEA*       N/A     39  39 100 NE44        N/A  WCI  25
MAUNA LOA*       N/A     45  43  93 MISG        N/A
MAUNA LOA 1*   NOT AVBL
PTA KIPUKA*      N/A     54  54 100 E3          N/A
PTA RANGE 17*    N/A     84  73  70 NE5         N/A  HX  91
PTA WEST*        N/A     81  77  89 SE7         N/A
NENE CABIN*      N/A     57  39  51 NW6G12      N/A
AHUMOA*          N/A     56  50  81 SE8         N/A
PTA PORTABLE*  NOT AVBL
PUU MALI*        N/A     57  57 100 E10G18      N/A
$$

HIC003-231300-
NORTHWEST ISLANDS-

CITY           SKY/WX    TMP DP  RH WIND       PRES   REMARKS
MIDWAY ISLAND  MOCLDY    79  73  83 SE17      30.02F
MIDWAY NOS*      N/A     79 N/A N/A MISG      30.01F
FRENCH FRIGATE NOT AVBL
$$

PHZ110>124-180-231300-
BUOY REPORTS

STATION/POSITION TIME  TEMP    WIND        PRES    WAVE   SWELL
                       AIR SEA DIR/SP/G            HT/PER HT/DIR
                 (UTC) (F)     (DEG/KT/KT) (MB)    (FT/S) (FT/D)
BUOY 51001       1200   81 82   90/ 16/ 17 1015.8F
BUOY 51101       1150   76 78   50/ 17/ 21 1017.4F  10/10   8/ 90
BUOY 51100       NOT AVBL
BUOY 51002       1150   81 82   90/ 14/ 17 1012.9F   7/ 9   7
BUOY 51003       1150   80 81   60/ 14/ 17 1013.1F   8/ 8   7/ 30
BUOY 51004       1150   80 81  200/ 17/ 23 1009.2F   8/10   7/ 60
BARBERS PT BUOY  NOT AVBL
WAIMEA BAY BUOY  1104      79                N/A     5/11   2/ 40
KAILUA BAY BUOY  1111      80                N/A    10/12   5/ 90
LANAI BUOY       1115      81                N/A     3/14   2/200
BARBERS PT 2     NOT AVBL
PAUWELA MAUI     1209      79                N/A    10/10   5/ 90
HILO             1212      80                N/A    15/11  10/ 90
KANEOHE BAY BUOY 1106      79                N/A     8/ 9   3/ 70
HANALEI KAUAI    NOT AVBL
KAHULUI HARBOR   1200   78 81   30/ 15/ 20 1013.3F
HONOLULU HARBOR  1200   78 80   80/  5/ 11 1014.2F
KILO NALU        NOT AVBL
HILO HARBOR      1200   75 76  340/ 26/ 30 1010.7F
MOKUOLOE         1100   78 81   60/ 12/ 15 1014.7F
NAWILIWILI       1200   74 81   50/ 13/ 18 1015.3F
WHOTS BUOY       NOT AVBL
BUOY 51028       NOT AVBL
$$

......................KEY........................................
  SKY/WX - SKY CONDITIONS/PRESENT WEATHER
  TMP    - TEMPERATURE IN FAHRENHEIT
  DWPT   - DEWPOINT IN FAHRENHEIT
  RH     - RELATIVE HUMIDITY IN PERCENT
  WIND   - DIRECTION AND SPEED /MPH FOR ISLANDS...KTS FOR BUOYS/
  PRES   - MEAN SEA LEVEL PRESSURE IN INCHES OF HG
  VSB    - VISIBILITY IN MILES
  HX     - HEAT INDEX
  WCI    - WIND CHILL INDEX
  VRB    - VARIABLE WIND DIRECTION
  N/A    - NOT AVAILABLE




USA.gov is the U.S. government's official web portal to all federal, state and local government web resources and services.